Location: Unspecified
(40.7945°N, 0.0000°E)
Time: 19:20:45
(UTC+00:00)

Explorer 7 - Pass Details

Date: 21 June 2021
Orbit: 484 x 676 km, 50.3° (Epoch: 30 July)

Event Time Altitude Azimuth Distance (km) Brightness Sun altitude
Rises 23:58:05 0° 296° (WNW) 3,008 10.9 -25.8°
Reaches altitude 10° 00:00:49 10° 309° (NW) 2,076 10.2 -25.8°
Maximum altitude 00:04:51 26° 6° (N) 1,262 9.3 -25.8°
Drops below altitude 10° 00:08:44 10° 63° (ENE) 1,992 10.0 -25.7°
Sets 00:11:18 0° 77° (ENE) 2,862 10.7 -25.7°
